sat.trackr.live / text

‹ back to catalog

STARLINK-35751

NORAD 66208 · 2025-244C

PAYLOAD ACTIVE UNKNOWN

§ Identity

Operator
Country
US
Launch date
2025-10-28
Launch site
AFWTR
Launch vehicle
Mass (kg)
RCS (m²)

Purposes: comms

External: N2YO · Heavens-Above · Gunter

§ Orbital elements

Epoch: 2026-05-24T17:28:25.597920Z

Period
94.11 min
Inclination
53.1581°
Eccentricity
0.0001074
Mean motion
15.30202274 rev/d
Perigee alt
474.5 km
Apogee alt
475.9 km
Semi-major
6,853.3 km
B*
3.4556e-4
RAAN
236.5598°
Arg perigee
72.2111°
Mean anomaly
287.9007°
Rev number
3,330

§ Raw data

STARLINK-357511 66208U 25244C   26144.72807405  .00009890  00000+0  34556-3 0  99902 66208  53.1581 236.5598 0001074  72.2111 287.9007 15.30202274 33309

JSON: /api/v1/satellites/66208 · /tle

For live sub-satellite position, see the globe view (requires WebGL).

§ Visibility from observer

Set your observer location to see the next 7 days of passes ≥ 10°. The values pass through the URL so the page stays shareable.

No JS? Fill the form by hand. The geolocation button needs JavaScript.